| time (UTC) | temp F | wind direction | speed MPH | gust MPH | rain 1hr in | rain 24hr in | rain mn in | humidity % | barometer mb |
| 20260505191605 | 71 | 178 | 2.0 | 9.0 | 0.00 | 0.00 | 0.00 | 49 | 1002.4 |
| 20260505191048 | 72 | 113 | 4.0 | 10.0 | 0.00 | 0.00 | 0.00 | 45 | 1002.2 |
| 20260505190548 | 72 | 80 | 3.0 | 10.0 | 0.00 | 0.00 | 0.00 | 44 | 1001.8 |
| 20260505190055 | 72 | 193 | 3.0 | 9.0 | 0.00 | 0.00 | 0.00 | 42 | 1001.8 |
| 20260505185547 | 72 | 193 | 4.0 | 12.0 | 0.00 | 0.00 | 0.00 | 44 | 1001.9 |
| 20260505185047 | 73 | 271 | 3.0 | 12.0 | 0.00 | 0.00 | 0.00 | 44 | 1001.9 |
| 20260505184552 | 73 | 178 | 3.0 | 11.0 | 0.00 | 0.00 | 0.00 | 44 | 1002.1 |
| 20260505184047 | 74 | 177 | 3.0 | 11.0 | 0.00 | 0.00 | 0.00 | 40 | 1002.1 |
| 20260505183546 | 74 | 264 | 3.0 | 11.0 | 0.00 | 0.00 | 0.00 | 40 | 1002.1 |
| 20260505183054 | 74 | 241 | 3.0 | 9.0 | 0.00 | 0.00 | 0.00 | 42 | 1001.9 |
| 20260505182546 | 75 | 245 | 4.0 | 9.0 | 0.00 | 0.00 | 0.00 | 41 | 1002.1 |
| 20260505182049 | 76 | 193 | 3.0 | 11.0 | 0.00 | 0.00 | 0.00 | 39 | 1002.1 |
| 20260505181556 | 76 | 276 | 4.0 | 11.0 | 0.00 | 0.00 | 0.00 | 43 | 1002.2 |
| 20260505181046 | 75 | 254 | 4.0 | 11.0 | 0.00 | 0.00 | 0.00 | 41 | 1002.1 |
| 20260505180545 | 75 | 284 | 5.0 | 9.0 | 0.00 | 0.00 | 0.00 | 40 | 1002.4 |
| 20260505180056 | 75 | 248 | 3.0 | 9.0 | 0.00 | 0.00 | 0.00 | 41 | 1002.6 |
| 20260505175547 | 75 | 178 | 3.0 | 9.0 | 0.00 | 0.00 | 0.00 | 40 | 1002.6 |
| 20260505175047 | 75 | 178 | 3.0 | 9.0 | 0.00 | 0.00 | 0.00 | 40 | 1002.6 |
| 20260505174553 | 76 | 236 | 4.0 | 11.0 | 0.00 | 0.00 | 0.00 | 41 | 1002.8 |
| 20260505174047 | 76 | 158 | 4.0 | 11.0 | 0.00 | 0.00 | 0.00 | 40 | 1002.7 |
| 20260505173547 | 77 | 219 | 4.0 | 8.0 | 0.00 | 0.00 | 0.00 | 41 | 1002.7 |
| 20260505173111 | 77 | 178 | 4.0 | 13.0 | 0.00 | 0.00 | 0.00 | 41 | 1002.8 |
| 20260505172547 | 77 | 178 | 3.0 | 13.0 | 0.00 | 0.00 | 0.00 | 40 | 1002.8 |
| 20260505172047 | 77 | 239 | 2.0 | 9.0 | 0.00 | 0.00 | 0.00 | 42 | 1003.0 |
| 20260505171620 | 77 | 300 | 3.0 | 9.0 | 0.00 | 0.00 | 0.00 | 40 | 1002.9 |
| 20260505171047 | 77 | 145 | 4.0 | 10.0 | 0.00 | 0.00 | 0.00 | 40 | 1002.6 |
| 20260505170546 | 77 | 178 | 4.0 | 10.0 | 0.00 | 0.00 | 0.00 | 38 | 1003.1 |
| 20260505170059 | 77 | 178 | 3.0 | 8.0 | 0.00 | 0.00 | 0.00 | 38 | 1002.6 |
| 20260505165546 | 76 | 224 | 4.0 | 8.0 | 0.00 | 0.00 | 0.00 | 40 | 1002.8 |
| 20260505165046 | 76 | 203 | 4.0 | 8.0 | 0.00 | 0.00 | 0.00 | 39 | 1003.2 |
| 20260505164601 | 76 | 178 | 3.0 | 6.0 | 0.00 | 0.00 | 0.00 | 40 | 1003.2 |
| 20260505164046 | 76 | 235 | 3.0 | 8.0 | 0.00 | 0.00 | 0.00 | 40 | 1003.4 |
| 20260505163546 | 75 | 265 | 4.0 | 9.0 | 0.00 | 0.00 | 0.00 | 44 | 1003.4 |
| 20260505163051 | 75 | 347 | 2.0 | 9.0 | 0.00 | 0.00 | 0.00 | 44 | 1003.6 |
| 20260505162545 | 74 | 178 | 4.0 | 9.0 | 0.00 | 0.00 | 0.00 | 46 | 1003.7 |
| 20260505162047 | 75 | 178 | 3.0 | 8.0 | 0.00 | 0.00 | 0.00 | 45 | 1003.7 |
| 20260505161556 | 74 | 239 | 3.0 | 8.0 | 0.00 | 0.00 | 0.00 | 45 | 1003.6 |
| 20260505161047 | 74 | 222 | 3.0 | 9.0 | 0.00 | 0.00 | 0.00 | 44 | 1003.9 |
| 20260505160550 | 73 | 274 | 3.0 | 9.0 | 0.00 | 0.00 | 0.00 | 46 | 1003.8 |
| 20260505153107 | 72 | 178 | 2.0 | 7.0 | 0.00 | 0.00 | 0.00 | 50 | 1004.4 |
| 20260505152547 | 71 | 179 | 3.0 | 8.0 | 0.00 | 0.00 | 0.00 | 55 | 1004.5 |
| 20260505152044 | 70 | 179 | 4.0 | 8.0 | 0.00 | 0.00 | 0.00 | 52 | 1004.7 |
| 20260505151602 | 70 | 255 | 2.0 | 8.0 | 0.00 | 0.00 | 0.00 | 54 | 1004.7 |
| 20260505151046 | 70 | 262 | 3.0 | 8.0 | 0.00 | 0.00 | 0.00 | 51 | 1004.6 |
| 20260505150544 | 69 | 252 | 3.0 | 8.0 | 0.00 | 0.00 | 0.00 | 53 | 1004.7 |
| 20260505150126 | 69 | 212 | 3.0 | 9.0 | 0.00 | 0.00 | 0.00 | 55 | 1004.7 |
| 20260505140544 | 66 | 178 | 3.0 | 8.0 | 0.00 | 0.00 | 0.00 | 57 | 1005.4 |
| 20260505124558 | 54 | 68 | 0.0 | 2.0 | 0.00 | 0.00 | 0.00 | 72 | 1004.9 |
| 20260505124049 | 54 | 103 | 1.0 | 2.0 | 0.00 | 0.00 | 0.00 | 73 | 1004.9 |
| 20260505123545 | 54 | 79 | 1.0 | 3.0 | 0.00 | 0.00 | 0.00 | 72 | 1005.0 |
| 20260505123100 | 54 | 34 | 1.0 | 3.0 | 0.00 | 0.00 | 0.00 | 72 | 1005.0 |
| 20260505122546 | 54 | 38 | 0.0 | 3.0 | 0.00 | 0.00 | 0.00 | 72 | 1004.9 |
| 20260505122048 | 54 | 48 | 0.0 | 3.0 | 0.00 | 0.00 | 0.00 | 72 | 1005.0 |
| 20260505121619 | 54 | 6 | 0.0 | 1.0 | 0.00 | 0.00 | 0.00 | 73 | 1004.9 |
| 20260505121046 | 53 | 80 | 0.0 | 2.0 | 0.00 | 0.00 | 0.00 | 72 | 1005.0 |
| 20260505120543 | 53 | 0 | 0.0 | 2.0 | 0.00 | 0.00 | 0.00 | 73 | 1005.1 |
| 20260505120050 | 53 | 65 | 1.0 | 1.0 | 0.00 | 0.00 | 0.00 | 70 | 1005.1 |
| 20260505115545 | 53 | 6 | 0.0 | 2.0 | 0.00 | 0.00 | 0.00 | 71 | 1005.2 |
| 20260505115044 | 54 | 0 | 0.0 | 2.0 | 0.00 | 0.00 | 0.00 | 71 | 1005.6 |
| 20260505114551 | 54 | 0 | 0.0 | 3.0 | 0.00 | 0.00 | 0.00 | 72 | 1005.4 |
| 20260505114044 | 54 | 29 | 1.0 | 3.0 | 0.00 | 0.00 | 0.00 | 71 | 1005.5 |
| 20260505113544 | 53 | 2 | 1.0 | 3.0 | 0.00 | 0.00 | 0.00 | 71 | 1005.4 |
| 20260505113057 | 54 | 335 | 1.0 | 4.0 | 0.00 | 0.00 | 0.00 | 71 | 1005.3 |
| 20260505112546 | 54 | 266 | 1.0 | 4.0 | 0.00 | 0.00 | 0.00 | 70 | 1005.3 |
| 20260505112046 | 53 | 304 | 1.0 | 2.0 | 0.00 | 0.00 | 0.00 | 70 | 1005.3 |
| 20260505111556 | 52 | 109 | 0.0 | 2.0 | 0.00 | 0.00 | 0.00 | 73 | 1005.4 |
| 20260505111046 | 52 | 81 | 0.0 | 2.0 | 0.00 | 0.00 | 0.00 | 73 | 1005.5 |
| 20260505110543 | 51 | 81 | 0.0 | 2.0 | 0.00 | 0.00 | 0.00 | 73 | 1005.5 |
| 20260505102046 | 50 | 84 | 0.0 | 3.0 | 0.00 | 0.00 | 0.00 | 74 | 1005.1 |
| 20260505101551 | 50 | 56 | 0.0 | 3.0 | 0.00 | 0.00 | 0.00 | 73 | 1004.8 |
| 20260505101046 | 50 | 23 | 0.0 | 5.0 | 0.00 | 0.00 | 0.00 | 73 | 1005.0 |
| 20260505100544 | 50 | 90 | 0.0 | 5.0 | 0.00 | 0.00 | 0.00 | 73 | 1005.0 |
| 20260505100128 | 49 | 79 | 1.0 | 5.0 | 0.00 | 0.00 | 0.00 | 73 | 1004.9 |
| 20260505095546 | 49 | 330 | 1.0 | 3.0 | 0.00 | 0.00 | 0.00 | 74 | 1004.9 |
| 20260505095048 | 49 | 72 | 1.0 | 3.0 | 0.00 | 0.00 | 0.00 | 74 | 1005.1 |
| 20260505094558 | 49 | 338 | 1.0 | 3.0 | 0.00 | 0.00 | 0.00 | 74 | 1005.0 |
| 20260505094045 | 49 | 351 | 1.0 | 3.0 | 0.00 | 0.00 | 0.00 | 74 | 1005.0 |
| 20260505093544 | 49 | 86 | 0.0 | 2.0 | 0.00 | 0.00 | 0.00 | 73 | 1005.0 |
| 20260505093101 | 49 | 46 | 1.0 | 2.0 | 0.00 | 0.00 | 0.00 | 72 | 1005.1 |
| 20260505092550 | 49 | 101 | 0.0 | 3.0 | 0.00 | 0.00 | 0.00 | 73 | 1005.0 |
| 20260505092046 | 49 | 67 | 1.0 | 3.0 | 0.00 | 0.00 | 0.00 | 72 | 1005.1 |
| 20260505091616 | 50 | 28 | 1.0 | 3.0 | 0.00 | 0.00 | 0.00 | 71 | 1004.9 |
| 20260505091045 | 50 | 352 | 1.0 | 4.0 | 0.00 | 0.00 | 0.00 | 71 | 1005.1 |
| 20260505090546 | 50 | 79 | 1.0 | 4.0 | 0.00 | 0.00 | 0.00 | 70 | 1005.1 |
| 20260505090101 | 50 | 2 | 1.0 | 2.0 | 0.00 | 0.00 | 0.00 | 70 | 1005.2 |
| 20260505085546 | 51 | 79 | 1.0 | 2.0 | 0.00 | 0.00 | 0.00 | 69 | 1005.4 |
| 20260505085044 | 51 | 0 | 0.0 | 2.0 | 0.00 | 0.00 | 0.00 | 69 | 1005.4 |
| 20260505084553 | 52 | 64 | 1.0 | 2.0 | 0.00 | 0.00 | 0.00 | 67 | 1005.4 |
| 20260505084047 | 53 | 103 | 0.0 | 4.0 | 0.00 | 0.00 | 0.00 | 67 | 1005.4 |
| 20260505083548 | 53 | 139 | 0.0 | 5.0 | 0.00 | 0.00 | 0.00 | 65 | 1005.4 |
| 20260505083056 | 52 | 176 | 0.0 | 5.0 | 0.00 | 0.00 | 0.00 | 67 | 1005.5 |
| 20260505082545 | 52 | 106 | 0.0 | 7.0 | 0.00 | 0.00 | 0.00 | 68 | 1005.4 |
| 20260505082047 | 52 | 126 | 1.0 | 7.0 | 0.00 | 0.00 | 0.00 | 68 | 1005.4 |
| 20260505081554 | 51 | 193 | 1.0 | 4.0 | 0.00 | 0.00 | 0.00 | 68 | 1005.3 |
| 20260505081044 | 50 | 119 | 1.0 | 3.0 | 0.00 | 0.00 | 0.00 | 71 | 1005.3 |
| 20260505080546 | 50 | 72 | 0.0 | 3.0 | 0.00 | 0.00 | 0.00 | 71 | 1005.4 |
| 20260505080054 | 50 | 98 | 1.0 | 2.0 | 0.00 | 0.00 | 0.00 | 69 | 1005.4 |
| 20260505075544 | 50 | 56 | 1.0 | 2.0 | 0.00 | 0.00 | 0.00 | 70 | 1005.4 |
| 20260505075046 | 50 | 73 | 0.0 | 5.0 | 0.00 | 0.00 | 0.00 | 69 | 1005.2 |
| 20260505074556 | 50 | 83 | 0.0 | 5.0 | 0.00 | 0.00 | 0.00 | 70 | 1005.3 |
| 20260505074048 | 49 | 98 | 1.0 | 2.0 | 0.00 | 0.00 | 0.00 | 70 | 1005.4 |
| 20260505073545 | 49 | 47 | 1.0 | 4.0 | 0.00 | 0.00 | 0.00 | 69 | 1005.3 |
| 20260505073102 | 50 | 29 | 1.0 | 4.0 | 0.00 | 0.00 | 0.00 | 68 | 1005.4 |
| 20260505072547 | 50 | 69 | 1.0 | 4.0 | 0.00 | 0.00 | 0.00 | 68 | 1005.4 |
| 20260505072049 | 50 | 193 | 0.0 | 3.0 | 0.00 | 0.00 | 0.00 | 68 | 1005.5 |
| 20260505071551 | 50 | 193 | 0.0 | 4.0 | 0.00 | 0.00 | 0.00 | 68 | 1005.5 |
| 20260505071045 | 50 | 345 | 0.0 | 4.0 | 0.00 | 0.00 | 0.00 | 69 | 1005.5 |
| 20260505070545 | 50 | 117 | 1.0 | 4.0 | 0.00 | 0.00 | 0.00 | 69 | 1005.4 |
| 20260505070057 | 49 | 103 | 1.0 | 2.0 | 0.00 | 0.00 | 0.00 | 68 | 1005.6 |
| 20260505065546 | 49 | 0 | 0.0 | 2.0 | 0.00 | 0.00 | 0.00 | 69 | 1005.5 |
| 20260505065041 | 49 | 75 | 0.0 | 4.0 | 0.00 | 0.00 | 0.00 | 68 | 1005.3 |
| 20260505064609 | 50 | 345 | 0.0 | 4.0 | 0.00 | 0.00 | 0.00 | 68 | 1005.5 |
| 20260505064046 | 50 | 41 | 0.0 | 4.0 | 0.00 | 0.00 | 0.00 | 69 | 1005.3 |
| 20260505063546 | 50 | 47 | 2.0 | 4.0 | 0.00 | 0.00 | 0.00 | 67 | 1005.3 |
| 20260505063052 | 49 | 98 | 1.0 | 3.0 | 0.00 | 0.00 | 0.00 | 69 | 1005.5 |
| 20260505062546 | 49 | 136 | 1.0 | 3.0 | 0.00 | 0.00 | 0.00 | 68 | 1005.6 |
| 20260505062045 | 50 | 77 | 0.0 | 4.0 | 0.00 | 0.00 | 0.00 | 68 | 1005.5 |
| 20260505061551 | 50 | 92 | 1.0 | 4.0 | 0.00 | 0.00 | 0.00 | 67 | 1005.5 |
| 20260505061046 | 50 | 93 | 0.0 | 3.0 | 0.00 | 0.00 | 0.00 | 67 | 1005.6 |
| 20260505060548 | 50 | 117 | 1.0 | 5.0 | 0.00 | 0.00 | 0.00 | 66 | 1005.5 |
| 20260505060058 | 51 | 70 | 0.0 | 5.0 | 0.00 | 0.00 | 0.00 | 65 | 1005.6 |
| 20260505055545 | 50 | 306 | 1.0 | 2.0 | 0.00 | 0.00 | 0.00 | 66 | 1005.8 |
| 20260505055046 | 51 | 359 | 1.0 | 4.0 | 0.00 | 0.00 | 0.00 | 65 | 1005.7 |
| 20260505054616 | 51 | 125 | 0.0 | 4.0 | 0.00 | 0.00 | 0.00 | 65 | 1005.7 |
| 20260505054045 | 51 | 8 | 1.0 | 3.0 | 0.00 | 0.00 | 0.00 | 65 | 1005.6 |
| 20260505053545 | 51 | 98 | 1.0 | 2.0 | 0.00 | 0.00 | 0.00 | 65 | 1005.8 |
| 20260505053052 | 52 | 107 | 1.0 | 4.0 | 0.00 | 0.00 | 0.00 | 64 | 1005.7 |
| 20260505052551 | 52 | 349 | 1.0 | 5.0 | 0.00 | 0.00 | 0.00 | 61 | 1005.8 |
| 20260505052042 | 52 | 41 | 1.0 | 5.0 | 0.00 | 0.00 | 0.00 | 62 | 1005.6 |
| 20260505051549 | 52 | 1 | 1.0 | 4.0 | 0.00 | 0.00 | 0.00 | 63 | 1005.6 |
| 20260505051048 | 52 | 0 | 1.0 | 4.0 | 0.00 | 0.00 | 0.00 | 64 | 1005.6 |
| 20260505050545 | 52 | 314 | 1.0 | 3.0 | 0.00 | 0.00 | 0.00 | 65 | 1005.7 |
| 20260505041605 | 52 | 96 | 0.0 | 3.0 | 0.00 | 0.00 | 0.00 | 66 | 1005.6 |
| 20260505041045 | 51 | 63 | 0.0 | 3.0 | 0.00 | 0.00 | 0.00 | 64 | 1005.6 |
| 20260505040543 | 51 | 71 | 0.0 | 1.0 | 0.00 | 0.00 | 0.00 | 66 | 1005.6 |
| 20260505040058 | 52 | 72 | 0.0 | 3.0 | 0.00 | 0.00 | 0.00 | 65 | 1005.7 |
| 20260505035544 | 52 | 71 | 1.0 | 4.0 | 0.00 | 0.00 | 0.00 | 65 | 1005.6 |
| 20260505035045 | 52 | 46 | 0.0 | 4.0 | 0.00 | 0.00 | 0.00 | 63 | 1005.6 |
| 20260505034555 | 52 | 56 | 0.0 | 2.0 | 0.00 | 0.00 | 0.00 | 64 | 1005.5 |
| 20260505034046 | 52 | 64 | 1.0 | 2.0 | 0.00 | 0.00 | 0.00 | 63 | 1005.6 |
| 20260505033546 | 52 | 63 | 1.0 | 2.0 | 0.00 | 0.00 | 0.00 | 64 | 1005.5 |
| 20260505033054 | 52 | 46 | 0.0 | 1.0 | 0.00 | 0.00 | 0.00 | 63 | 1005.5 |
| 20260505032546 | 53 | 58 | 1.0 | 2.0 | 0.00 | 0.00 | 0.00 | 63 | 1005.4 |
| 20260505032049 | 53 | 0 | 0.0 | 2.0 | 0.00 | 0.00 | 0.00 | 63 | 1005.5 |
| 20260505031553 | 53 | 79 | 0.0 | 2.0 | 0.00 | 0.00 | 0.00 | 63 | 1005.4 |
| 20260505031045 | 53 | 0 | 0.0 | 3.0 | 0.00 | 0.00 | 0.00 | 63 | 1005.5 |
| 20260505030544 | 53 | 107 | 1.0 | 3.0 | 0.00 | 0.00 | 0.00 | 59 | 1005.5 |
| 20260505025546 | 53 | 76 | 0.0 | 3.0 | 0.00 | 0.00 | 0.00 | 63 | 1005.7 |
| 20260505025044 | 53 | 66 | 0.0 | 3.0 | 0.00 | 0.00 | 0.00 | 64 | 1005.7 |
| 20260505024551 | 53 | 24 | 1.0 | 3.0 | 0.00 | 0.00 | 0.00 | 62 | 1005.7 |
| 20260505024045 | 53 | 104 | 0.0 | 1.0 | 0.00 | 0.00 | 0.00 | 63 | 1005.6 |
| 20260505023542 | 54 | 105 | 1.0 | 1.0 | 0.00 | 0.00 | 0.00 | 63 | 1005.6 |
| 20260505023050 | 54 | 105 | 0.0 | 1.0 | 0.00 | 0.00 | 0.00 | 61 | 1005.4 |
| 20260505022545 | 54 | 105 | 1.0 | 1.0 | 0.00 | 0.00 | 0.00 | 61 | 1005.5 |
| 20260505022042 | 54 | 114 | 1.0 | 2.0 | 0.00 | 0.00 | 0.00 | 60 | 1005.4 |
| 20260505021558 | 54 | 0 | 1.0 | 2.0 | 0.00 | 0.00 | 0.00 | 62 | 1005.4 |
| 20260505021042 | 54 | 99 | 0.0 | 2.0 | 0.00 | 0.00 | 0.00 | 61 | 1005.5 |
| 20260505020545 | 54 | 99 | 1.0 | 3.0 | 0.00 | 0.00 | 0.00 | 61 | 1005.6 |
| 20260505015546 | 54 | 0 | 1.0 | 3.0 | 0.00 | 0.00 | 0.00 | 60 | 1005.6 |
| 20260505015047 | 54 | 87 | 0.0 | 2.0 | 0.00 | 0.00 | 0.00 | 60 | 1005.6 |
| 20260505014551 | 54 | 87 | 0.0 | 3.0 | 0.00 | 0.00 | 0.00 | 60 | 1005.7 |
| 20260505014042 | 54 | 87 | 0.0 | 3.0 | 0.00 | 0.00 | 0.00 | 59 | 1005.8 |
| 20260505013545 | 54 | 193 | 0.0 | 1.0 | 0.00 | 0.00 | 0.00 | 59 | 1005.7 |
| 20260505013050 | 55 | 193 | 1.0 | 1.0 | 0.00 | 0.00 | 0.00 | 60 | 1005.8 |
| 20260505012545 | 55 | 0 | 0.0 | 1.0 | 0.00 | 0.00 | 0.00 | 60 | 1005.7 |
| 20260505012046 | 55 | 193 | 0.0 | 1.0 | 0.00 | 0.00 | 0.00 | 59 | 1005.6 |
| 20260505011550 | 55 | 0 | 0.0 | 1.0 | 0.00 | 0.00 | 0.00 | 58 | 1005.6 |
| 20260505011044 | 55 | 193 | 0.0 | 1.0 | 0.00 | 0.00 | 0.00 | 59 | 1005.5 |
| 20260505010546 | 56 | 193 | 0.0 | 2.0 | 0.00 | 0.00 | 0.00 | 56 | 1005.5 |
| 20260505010106 | 56 | 0 | 0.0 | 2.0 | 0.00 | 0.00 | 0.00 | 55 | 1005.4 |
| 20260505005545 | 56 | 285 | 0.0 | 2.0 | 0.00 | 0.00 | 0.00 | 53 | 1005.4 |
| 20260505005043 | 56 | 164 | 0.0 | 5.0 | 0.00 | 0.00 | 0.00 | 56 | 1005.4 |
| 20260505004551 | 56 | 0 | 0.0 | 5.0 | 0.00 | 0.00 | 0.00 | 54 | 1005.3 |
| 20260505004045 | 55 | 193 | 0.0 | 1.0 | 0.00 | 0.00 | 0.00 | 57 | 1005.4 |
| 20260505003543 | 55 | 193 | 0.0 | 2.0 | 0.00 | 0.00 | 0.00 | 58 | 1005.1 |
| 20260505003052 | 56 | 193 | 0.0 | 2.0 | 0.00 | 0.00 | 0.00 | 57 | 1005.0 |
| 20260505002548 | 56 | 193 | 0.0 | 1.0 | 0.00 | 0.00 | 0.00 | 57 | 1005.0 |
| 20260505002046 | 56 | 193 | 0.0 | 1.0 | 0.00 | 0.00 | 0.00 | 54 | 1005.0 |
| 20260505001552 | 56 | 193 | 0.0 | 1.0 | 0.00 | 0.00 | 0.00 | 55 | 1004.9 |
| 20260505001047 | 57 | 193 | 0.0 | 4.0 | 0.00 | 0.00 | 0.00 | 52 | 1004.8 |
| 20260505000545 | 58 | 193 | 1.0 | 4.0 | 0.00 | 0.00 | 0.00 | 52 | 1004.9 |
| 20260505000059 | 58 | 0 | 0.0 | 4.0 | 0.00 | 0.00 | 0.00 | 51 | 1004.9 |
| 20260504235550 | 58 | 0 | 0.0 | 3.0 | 0.00 | 0.00 | 0.00 | 51 | 1004.8 |
| 20260504235045 | 58 | 0 | 0.0 | 3.0 | 0.00 | 0.00 | 0.00 | 51 | 1004.7 |
| 20260504234552 | 59 | 285 | 0.0 | 3.0 | 0.00 | 0.00 | 0.00 | 48 | 1004.6 |
| 20260504234043 | 59 | 0 | 1.0 | 4.0 | 0.00 | 0.00 | 0.00 | 48 | 1004.5 |
| 20260504233548 | 60 | 193 | 1.0 | 4.0 | 0.00 | 0.00 | 0.00 | 47 | 1004.4 |
| 20260504233054 | 60 | 0 | 0.0 | 4.0 | 0.00 | 0.00 | 0.00 | 48 | 1004.5 |
| 20260504232545 | 60 | 193 | 0.0 | 8.0 | 0.00 | 0.00 | 0.00 | 48 | 1004.4 |
| 20260504232043 | 60 | 193 | 1.0 | 8.0 | 0.00 | 0.00 | 0.00 | 46 | 1004.3 |
| 20260504231552 | 61 | 193 | 3.0 | 8.0 | 0.00 | 0.00 | 0.00 | 46 | 1004.2 |
| 20260504231045 | 61 | 193 | 0.0 | 4.0 | 0.00 | 0.00 | 0.00 | 47 | 1004.2 |
| 20260504230545 | 61 | 193 | 1.0 | 5.0 | 0.00 | 0.00 | 0.00 | 47 | 1004.2 |
| 20260504230112 | 62 | 283 | 1.0 | 5.0 | 0.00 | 0.00 | 0.00 | 45 | 1004.0 |
| 20260504225548 | 62 | 203 | 1.0 | 6.0 | 0.00 | 0.00 | 0.00 | 43 | 1004.0 |
| 20260504225049 | 62 | 221 | 1.0 | 6.0 | 0.00 | 0.00 | 0.00 | 42 | 1003.9 |
| 20260504224606 | 63 | 270 | 2.0 | 5.0 | 0.00 | 0.00 | 0.00 | 42 | 1004.0 |
| 20260504224045 | 63 | 230 | 1.0 | 14.0 | 0.00 | 0.00 | 0.00 | 44 | 1003.9 |
| 20260504223545 | 63 | 257 | 3.0 | 14.0 | 0.00 | 0.00 | 0.00 | 43 | 1003.8 |
| 20260504223051 | 63 | 286 | 2.0 | 6.0 | 0.00 | 0.00 | 0.00 | 42 | 1003.8 |
| 20260504222545 | 63 | 199 | 1.0 | 5.0 | 0.00 | 0.00 | 0.00 | 42 | 1003.8 |
| 20260504222044 | 63 | 193 | 2.0 | 5.0 | 0.00 | 0.00 | 0.00 | 42 | 1003.9 |
| 20260504221550 | 64 | 240 | 2.0 | 5.0 | 0.00 | 0.00 | 0.00 | 42 | 1003.9 |
| 20260504221045 | 64 | 258 | 1.0 | 4.0 | 0.00 | 0.00 | 0.00 | 45 | 1003.8 |
| 20260504220545 | 64 | 252 | 1.0 | 4.0 | 0.00 | 0.00 | 0.00 | 44 | 1004.0 |
| 20260504220100 | 64 | 253 | 2.0 | 4.0 | 0.00 | 0.00 | 0.00 | 41 | 1003.8 |
| 20260504215545 | 64 | 229 | 2.0 | 6.0 | 0.00 | 0.00 | 0.00 | 41 | 1003.7 |
| 20260504215043 | 64 | 227 | 2.0 | 6.0 | 0.00 | 0.00 | 0.00 | 40 | 1003.7 |
| 20260504214550 | 64 | 231 | 3.0 | 11.0 | 0.00 | 0.00 | 0.00 | 40 | 1003.6 |
| 20260504214044 | 64 | 175 | 2.0 | 11.0 | 0.00 | 0.00 | 0.00 | 43 | 1003.6 |
| 20260504213543 | 64 | 178 | 3.0 | 11.0 | 0.00 | 0.00 | 0.00 | 43 | 1003.6 |
| 20260504213051 | 64 | 178 | 2.0 | 7.0 | 0.00 | 0.00 | 0.00 | 42 | 1003.6 |
| 20260504212544 | 64 | 178 | 2.0 | 7.0 | 0.00 | 0.00 | 0.00 | 41 | 1003.5 |
| 20260504212044 | 64 | 178 | 3.0 | 7.0 | 0.00 | 0.00 | 0.00 | 41 | 1003.6 |
| 20260504211557 | 65 | 178 | 3.0 | 8.0 | 0.00 | 0.00 | 0.00 | 41 | 1003.5 |
| 20260504211044 | 65 | 178 | 1.0 | 8.0 | 0.00 | 0.00 | 0.00 | 41 | 1003.5 |
| 20260504210545 | 64 | 178 | 4.0 | 13.0 | 0.00 | 0.00 | 0.00 | 43 | 1003.6 |
| 20260504210101 | 64 | 210 | 4.0 | 13.0 | 0.00 | 0.00 | 0.00 | 42 | 1003.6 |
| 20260504205544 | 64 | 259 | 2.0 | 9.0 | 0.00 | 0.00 | 0.00 | 45 | 1003.6 |
| 20260504205044 | 63 | 270 | 4.0 | 9.0 | 0.00 | 0.00 | 0.00 | 44 | 1003.6 |
| 20260504204550 | 64 | 265 | 2.0 | 7.0 | 0.00 | 0.00 | 0.00 | 44 | 1003.8 |
| 20260504204045 | 64 | 193 | 4.0 | 7.0 | 0.00 | 0.00 | 0.00 | 43 | 1003.8 |
| 20260504203545 | 63 | 178 | 2.0 | 12.0 | 0.00 | 0.00 | 0.00 | 45 | 1003.7 |
| 20260504203049 | 63 | 178 | 4.0 | 12.0 | 0.00 | 0.00 | 0.00 | 44 | 1003.7 |
| 20260504202545 | 63 | 178 | 2.0 | 6.0 | 0.00 | 0.00 | 0.00 | 47 | 1003.9 |
| 20260504202046 | 63 | 166 | 3.0 | 9.0 | 0.00 | 0.00 | 0.00 | 45 | 1003.8 |
| 20260504201549 | 63 | 226 | 1.0 | 10.0 | 0.00 | 0.00 | 0.00 | 45 | 1003.8 |
| 20260504201043 | 64 | 193 | 4.0 | 10.0 | 0.00 | 0.00 | 0.00 | 43 | 1003.8 |
| 20260504200543 | 65 | 178 | 2.0 | 6.0 | 0.00 | 0.00 | 0.00 | 44 | 1003.9 |
| 20260504200101 | 65 | 178 | 3.0 | 9.0 | 0.00 | 0.00 | 0.00 | 44 | 1003.7 |
| 20260504195544 | 64 | 178 | 2.0 | 10.0 | 0.00 | 0.00 | 0.00 | 45 | 1003.7 |
| 20260504195043 | 64 | 178 | 4.0 | 10.0 | 0.00 | 0.00 | 0.00 | 45 | 1003.8 |
| 20260504194551 | 63 | 178 | 5.0 | 10.0 | 0.00 | 0.00 | 0.00 | 44 | 1004.0 |
| 20260504194044 | 64 | 178 | 5.0 | 10.0 | 0.00 | 0.00 | 0.00 | 45 | 1004.1 |
| 20260504193545 | 63 | 178 | 3.0 | 10.0 | 0.00 | 0.00 | 0.00 | 45 | 1003.7 |
| 20260504193050 | 63 | 235 | 3.0 | 10.0 | 0.00 | 0.00 | 0.00 | 46 | 1003.9 |
| 20260504192545 | 62 | 155 | 4.0 | 8.0 | 0.00 | 0.00 | 0.00 | 49 | 1004.0 |
| 20260504192048 | 62 | 178 | 3.0 | 9.0 | 0.00 | 0.00 | 0.00 | 49 | 1004.0 |